CCA1731 ZSPD-ZBAA

Flight info

Callsign CCA1731
Flight time N/A
Altitude 31000
Route ZBAA/18L K0856S1100 RUSD6J RUSDO W45 IPLEV/K0845S1130 B458 DADGA/K0852S1100 W37 GUSIV/K0867S1130 W37 PEXID/K0869S1100 W37 OMBEB/K0865S1130 R473 NNX/K0867S1160 R473 WYN W18 NLG W23 ZUH R473 SIERA SIER7A VHHH/07L
Aircraft B738/M-SDE1E2E3FGHIJ2J3J4J5M1RWXYZ/LB1D1

Departure

Time N/A
Airport Shanghai Pudong International Airport (ZSPD)

Arrival

Time 2026-05-05 08:26
Airport Beijing Capital International Airport (ZBAA)
Time Latitude Longitude Altitude Speed Heading
2026-05-05 08:25 40.07573 116.60403 123 ft 0 kts 56°
2026-05-05 08:34 40.07564 116.60387 123 ft 2 kts 51°
2026-05-05 08:34 40.07553 116.60370 118 ft 2 kts 47°
2026-05-05 08:35 40.07542 116.60355 123 ft 2 kts 41°
2026-05-05 08:35 40.07528 116.60341 119 ft 2 kts 33°
2026-05-05 08:35 40.07514 116.60331 121 ft 2 kts 23°
2026-05-05 08:35 40.07498 116.60324 121 ft 2 kts 11°
2026-05-05 08:36 40.07482 116.60321 121 ft 2 kts 360°
2026-05-05 08:36 40.07465 116.60323 118 ft 2 kts 349°
2026-05-05 08:36 40.07449 116.60328 121 ft 2 kts 343°
2026-05-05 08:36 40.07436 116.60333 119 ft 1 kts 343°
2026-05-05 08:37 40.07433 116.60334 120 ft 0 kts 346°
2026-05-05 08:40 40.07444 116.60331 121 ft 5 kts 347°
2026-05-05 08:40 40.07483 116.60319 120 ft 6 kts 345°
2026-05-05 08:41 40.07520 116.60297 121 ft 6 kts 330°
2026-05-05 08:41 40.07556 116.60259 121 ft 8 kts 316°
2026-05-05 08:41 40.07598 116.60186 121 ft 11 kts 297°
2026-05-05 08:41 40.07625 116.60101 123 ft 9 kts 292°
2026-05-05 08:42 40.07630 116.60022 120 ft 9 kts 264°
2026-05-05 08:42 40.07628 116.59945 123 ft 8 kts 288°
2026-05-05 08:42 40.07680 116.59916 121 ft 8 kts 350°
2026-05-05 08:42 40.07746 116.59906 121 ft 12 kts 353°
2026-05-05 08:43 40.07839 116.59891 121 ft 15 kts 353°
2026-05-05 08:43 40.07962 116.59872 120 ft 20 kts 353°
2026-05-05 08:43 40.08100 116.59850 119 ft 19 kts 353°
2026-05-05 08:43 40.08232 116.59830 119 ft 19 kts 353°
2026-05-05 08:44 40.08367 116.59809 120 ft 21 kts 353°
2026-05-05 08:44 40.08517 116.59785 121 ft 24 kts 353°
2026-05-05 08:44 40.08681 116.59759 124 ft 23 kts 353°
2026-05-05 08:44 40.08831 116.59736 122 ft 17 kts 354°
2026-05-05 08:45 40.08928 116.59722 122 ft 10 kts 352°
2026-05-05 08:45 40.08976 116.59692 121 ft 8 kts 300°
2026-05-05 08:45 40.08977 116.59622 123 ft 8 kts 262°
2026-05-05 08:45 40.08961 116.59558 119 ft 7 kts 233°
2026-05-05 08:46 40.08925 116.59517 123 ft 5 kts 219°
2026-05-05 08:46 40.08901 116.59495 122 ft 4 kts 204°
2026-05-05 08:46 40.08877 116.59494 119 ft 2 kts 174°
2026-05-05 08:46 40.08874 116.59494 120 ft 0 kts 174°
2026-05-05 08:47 40.08757 116.59513 123 ft 50 kts 173°
2026-05-05 08:47 40.08152 116.59608 117 ft 123 kts 173°
2026-05-05 08:48 40.07098 116.59772 182 ft 177 kts 173°
2026-05-05 08:48 40.05845 116.59992 952 ft 182 kts 173°
2026-05-05 08:48 40.04546 116.60218 1720 ft 192 kts 174°
2026-05-05 08:48 40.03208 116.60441 2503 ft 192 kts 174°
2026-05-05 08:49 40.01899 116.60648 3222 ft 188 kts 176°
2026-05-05 08:49 40.00573 116.60838 3660 ft 194 kts 177°
2026-05-05 08:49 39.99246 116.61028 4212 ft 194 kts 177°
2026-05-05 08:49 39.97825 116.61236 4392 ft 215 kts 176°
2026-05-05 08:50 39.96302 116.61466 4744 ft 225 kts 176°
2026-05-05 08:50 39.94721 116.61708 5205 ft 230 kts 177°
2026-05-05 08:50 39.93076 116.61960 5477 ft 247 kts 177°
2026-05-05 08:50 39.91333 116.62229 5907 ft 258 kts 177°
2026-05-05 08:51 39.89540 116.62509 6576 ft 261 kts 177°
2026-05-05 08:51 39.87720 116.62793 7188 ft 267 kts 177°
2026-05-05 08:51 39.85846 116.63084 7812 ft 273 kts 176°
2026-05-05 08:51 39.83942 116.63382 8426 ft 279 kts 176°
2026-05-05 08:52 39.81989 116.63682 9045 ft 285 kts 177°
2026-05-05 08:52 39.80002 116.63984 9649 ft 291 kts 177°
2026-05-05 08:52 39.78658 116.64188 9952 ft 299 kts 177°
2026-05-05 08:52 39.76882 116.64456 10065 ft 317 kts 176°
2026-05-05 08:53 39.75054 116.64733 10202 ft 334 kts 176°
2026-05-05 08:53 39.72643 116.65098 10352 ft 353 kts 177°
2026-05-05 08:53 39.70164 116.64968 10533 ft 362 kts 198°
2026-05-05 08:53 39.67930 116.63614 11016 ft 361 kts 219°
2026-05-05 08:54 39.66225 116.61227 11615 ft 358 kts 240°
2026-05-05 08:54 39.65315 116.58267 12172 ft 358 kts 261°
2026-05-05 08:54 39.65032 116.55051 12722 ft 362 kts 265°
2026-05-05 08:54 39.64842 116.51774 13291 ft 365 kts 266°
2026-05-05 08:55 39.64666 116.48480 13796 ft 368 kts 266°
2026-05-05 08:55 39.64481 116.45152 14343 ft 370 kts 266°